Weather in Stepnogorsk

Kazakhstan     52°20′47″N   71°52′47″E
temp.,
°C
wind,
m/s
gust,
m/s
humid.,
%
clouds,
%
prec.,
mm/h
press.,
hPa
HPBL,
m
11 april, sun
sun1100:00−1ne5109855 0.0 1039241
03:00−2ene599999 0.0 1039233
06:00−2ene6895100 0.0 1041311
09:00−1ene6890100 0.0 1042405
12:00+2e57776 0.0 1041489
15:00+5ene45714 0.0 1040524
18:00+4ene45745 0.0 1040425
21:000e35915 0.0 104082
12 april, mon
mon1200:00−1e22910 0.0 103936
03:00−1ese12900 0.0 103810
06:000ne22871 0.0 103910
09:00+4ne22685 0.0 1038156
12:00+8e22495 0.0 1037390
15:00+11nne22405 0.0 1035568
18:00+12nne23426 0.0 1034475
21:00+7nne335966 0.0 103518
13 april, tue
tue1300:00+5nne347899 0.0 103655
03:00+3nne3479100 0.0 103654
06:00+2nne4792100 0.0 1037121
09:00+4ne5998100 0.0 1038364
12:00+8ene6870100 0.0 1038626
15:00+10ene6755100 0.0 1038940
18:00+10ene5653100 0.0 1037854
21:00+6e3571100 0.0 103786
14 april, wed
wed1400:00+4e347854 0.0 103752
03:00+3e33760 0.0 103729
06:00+2ese33740 0.0 103620
09:00+5e35600 0.0 1035235
12:00+10ese45440 0.0 1033600
15:00+14ese34320 0.0 1031779
18:00+14e34320 0.0 1028742
21:00+9ese34500 0.0 102841
15 april, thu
thu1500:00+7ese33550 0.0 102728
03:00+5se33560 0.0 102514
06:00+4ese22570 0.0 102410
09:00+8se24460 0.0 1023148
12:00+14ese34330 0.0 1021514
15:00+17ese34270 0.0 1019817
18:00+17ese44280 0.0 1018893
21:00+12e45460 0.0 101748